• In Russia
  • List of Countries
  • For 7 days
  • Water Temperature
  • Satellite Maps
  • Weather Map
  • Weather Widgets
  • user-avatar
    Login

    Hourly Weather Brisbane

    Today, 28 March, Tuesday

    Time Temperature Precipitation Wind Pressure Humidity
    00:00 +21°C° 0 mm 2 mps 759 mmHg 92%
    01:00 +20°C° 0 mm 2 mps 759 mmHg 93%
    02:00 +21°C° 0 mm 1 mps 758 mmHg 93%
    03:00 +21°C° 0 mm 1 mps 758 mmHg 93%
    04:00 +21°C° 0 mm 1 mps 758 mmHg 93%
    05:00 +22°C° 0 mm 1 mps 758 mmHg 91%
    06:00 +23°C° 0 mm 1 mps 758 mmHg 88%
    07:00 +24°C° 0 mm 1 mps 759 mmHg 85%
    08:00 +26°C° 0 mm 1 mps 759 mmHg 78%
    09:00 +28°C° 0 mm 2 mps 759 mmHg 70%
    10:00 +29°C° 0 mm 2 mps 759 mmHg 62%
    11:00 +30°C° 0 mm 2 mps 758 mmHg 58%
    12:00 +31°C° 0 mm 3 mps 758 mmHg 55%
    13:00 +33°C° 0 mm 3 mps 757 mmHg 51%
    14:00 +32°C° 0 mm 4 mps 757 mmHg 55%
    15:00 +30°C° 0 mm 4 mps 757 mmHg 58%
    16:00 +30°C° 0 mm 4 mps 757 mmHg 62%
    17:00 +28°C° 0 mm 4 mps 757 mmHg 71%
    18:00 +26°C° 0 mm 3 mps 758 mmHg 80%
    19:00 +24°C° 0 mm 3 mps 758 mmHg 89%
    20:00 +24°C° 0 mm 3 mps 758 mmHg 90%
    21:00 +23°C° 0 mm 2 mps 759 mmHg 91%
    22:00 +23°C° 0 mm 2 mps 759 mmHg 93%
    23:00 +23°C° 0 mm 2 mps 759 mmHg 92%

    Tomorrow, 29 March, Wednesday

    Time Temperature Precipitation Wind Pressure Humidity
    00:00 +23°C° 0 mm 2 mps 758 mmHg 92%
    01:00 +23°C° 0 mm 2 mps 758 mmHg 92%
    02:00 +24°C° 0 mm 2 mps 758 mmHg 92%
    03:00 +24°C° 0 mm 2 mps 758 mmHg 91%
    04:00 +24°C° 0 mm 3 mps 758 mmHg 91%
    05:00 +24°C° 0 mm 3 mps 758 mmHg 90%
    06:00 +25°C° 0 mm 3 mps 758 mmHg 89%
    07:00 +25°C° 0 mm 3 mps 759 mmHg 89%
    08:00 +26°C° 0.1 mm 4 mps 759 mmHg 86%
    09:00 +27°C° 0.1 mm 4 mps 759 mmHg 83%
    10:00 +28°C° 0.1 mm 4 mps 759 mmHg 80%
    11:00 +29°C° 0.4 mm 5 mps 759 mmHg 78%
    12:00 +29°C° 0.4 mm 5 mps 758 mmHg 76%
    13:00 +30°C° 0.4 mm 5 mps 758 mmHg 75%
    14:00 +30°C° 0.6 mm 5 mps 757 mmHg 76%
    15:00 +29°C° 0.6 mm 6 mps 757 mmHg 77%
    16:00 +29°C° 0.6 mm 6 mps 757 mmHg 78%
    17:00 +28°C° 0.8 mm 5 mps 757 mmHg 83%
    18:00 +27°C° 0.8 mm 5 mps 757 mmHg 87%
    19:00 +26°C° 0.8 mm 4 mps 758 mmHg 91%
    20:00 +26°C° 1.2 mm 4 mps 758 mmHg 93%
    21:00 +26°C° 1.2 mm 4 mps 758 mmHg 94%
    22:00 +26°C° 1.2 mm 4 mps 758 mmHg 95%
    23:00 +26°C° 1.4 mm 3 mps 758 mmHg 95%

    Day after tomorrow, 30 March, Thursday

    Time Temperature Precipitation Wind Pressure Humidity
    00:00 +26°C° 1.4 mm 3 mps 757 mmHg 95%
    01:00 +25°C° 1.4 mm 3 mps 757 mmHg 96%
    02:00 +25°C° 1.8 mm 3 mps 757 mmHg 95%
    03:00 +25°C° 1.8 mm 3 mps 756 mmHg 95%
    04:00 +25°C° 1.8 mm 3 mps 756 mmHg 95%
    05:00 +25°C° 1.4 mm 3 mps 756 mmHg 95%
    06:00 +26°C° 1.4 mm 3 mps 756 mmHg 94%
    07:00 +26°C° 1.4 mm 3 mps 756 mmHg 94%
    08:00 +26°C° 1.4 mm 3 mps 756 mmHg 93%
    09:00 +26°C° 1.4 mm 3 mps 756 mmHg 92%
    10:00 +27°C° 1.4 mm 3 mps 756 mmHg 91%
    11:00 +28°C° 0.6 mm 4 mps 755 mmHg 85%
    12:00 +30°C° 0.6 mm 6 mps 754 mmHg 78%
    13:00 +32°C° 0.6 mm 7 mps 753 mmHg 71%
    14:00 +32°C° 1.1 mm 8 mps 753 mmHg 74%
    15:00 +31°C° 1.1 mm 8 mps 752 mmHg 76%
    16:00 +29°C° 1.1 mm 8 mps 752 mmHg 79%
    17:00 +29°C° 0.3 mm 8 mps 751 mmHg 80%
    18:00 +28°C° 0.3 mm 8 mps 751 mmHg 81%
    19:00 +28°C° 0.3 mm 8 mps 751 mmHg 82%
    20:00 +28°C° 0.4 mm 8 mps 751 mmHg 83%
    21:00 +28°C° 0.4 mm 9 mps 751 mmHg 85%
    22:00 +27°C° 0.4 mm 9 mps 750 mmHg 87%
    23:00 +27°C° 0.8 mm 8 mps 750 mmHg 88%

    31 March, Friday

    Time Temperature Precipitation Wind Pressure Humidity
    00:00 +27°C° 0.8 mm 8 mps 749 mmHg 89%
    01:00 +27°C° 0.8 mm 7 mps 749 mmHg 91%
    02:00 +27°C° 0.3 mm 7 mps 749 mmHg 89%
    03:00 +26°C° 0.3 mm 7 mps 749 mmHg 88%
    04:00 +26°C° 0.3 mm 7 mps 749 mmHg 86%
    05:00 +24°C° 0.2 mm 7 mps 750 mmHg 86%
    06:00 +24°C° 0.2 mm 8 mps 751 mmHg 85%
    07:00 +23°C° 0.2 mm 8 mps 753 mmHg 84%
    08:00 +23°C° 0.2 mm 7 mps 753 mmHg 81%
    09:00 +23°C° 0.2 mm 7 mps 754 mmHg 77%
    10:00 +24°C° 0.2 mm 6 mps 755 mmHg 73%
    11:00 +26°C° 0.1 mm 6 mps 755 mmHg 70%
    12:00 +26°C° 0.1 mm 6 mps 755 mmHg 67%
    13:00 +27°C° 0.1 mm 6 mps 755 mmHg 63%
    14:00 +27°C° 0 mm 6 mps 755 mmHg 63%
    15:00 +27°C° 0 mm 7 mps 756 mmHg 63%
    16:00 +27°C° 0 mm 7 mps 756 mmHg 63%
    17:00 +26°C° 0 mm 7 mps 757 mmHg 65%
    18:00 +24°C° 0 mm 6 mps 757 mmHg 68%
    19:00 +23°C° 0 mm 6 mps 758 mmHg 70%
    20:00 +22°C° 0 mm 6 mps 758 mmHg 71%
    21:00 +22°C° 0 mm 6 mps 759 mmHg 72%
    22:00 +21°C° 0 mm 6 mps 759 mmHg 73%
    23:00 +21°C° 0 mm 6 mps 759 mmHg 73%

    1 April, Saturday

    Time Temperature Precipitation Wind Pressure Humidity
    00:00 +20°C° 0 mm 6 mps 759 mmHg 73%
    01:00 +20°C° 0 mm 6 mps 759 mmHg 72%
    02:00 +20°C° 0 mm 6 mps 759 mmHg 71%
    03:00 +20°C° 0 mm 6 mps 759 mmHg 70%
    04:00 +20°C° 0 mm 5 mps 759 mmHg 69%
    05:00 +20°C° 0 mm 5 mps 760 mmHg 70%
    06:00 +19°C° 0 mm 5 mps 760 mmHg 72%
    07:00 +19°C° 0 mm 5 mps 761 mmHg 73%
    08:00 +21°C° 0 mm 5 mps 761 mmHg 68%
    09:00 +23°C° 0 mm 5 mps 761 mmHg 63%
    10:00 +25°C° 0 mm 5 mps 761 mmHg 58%
    11:00 +26°C° 0 mm 5 mps 761 mmHg 55%
    12:00 +27°C° 0 mm 4 mps 760 mmHg 52%
    13:00 +28°C° 0 mm 4 mps 760 mmHg 49%
    14:00 +28°C° 0 mm 4 mps 760 mmHg 52%
    15:00 +27°C° 0 mm 4 mps 760 mmHg 55%
    16:00 +27°C° 0 mm 4 mps 760 mmHg 58%
    17:00 +25°C° 0 mm 5 mps 760 mmHg 64%
    18:00 +23°C° 0 mm 5 mps 761 mmHg 70%
    19:00 +22°C° 0 mm 5 mps 761 mmHg 76%
    20:00 +21°C° 0 mm 5 mps 762 mmHg 79%
    21:00 +21°C° 0 mm 5 mps 762 mmHg 82%
    22:00 +20°C° 0 mm 5 mps 762 mmHg 85%
    23:00 +20°C° 0 mm 5 mps 762 mmHg 86%

    2 April, Sunday

    Time Temperature Precipitation Wind Pressure Humidity
    00:00 +19°C° 0 mm 5 mps 762 mmHg 87%
    01:00 +19°C° 0 mm 4 mps 762 mmHg 88%
    02:00 +17°C° 0.1 mm 5 mps 762 mmHg 88%
    03:00 +17°C° 0.1 mm 5 mps 762 mmHg 89%
    04:00 +17°C° 0.1 mm 5 mps 762 mmHg 90%
    05:00 +19°C° 0.1 mm 5 mps 762 mmHg 88%
    06:00 +19°C° 0.1 mm 5 mps 763 mmHg 86%
    07:00 +20°C° 0.1 mm 5 mps 763 mmHg 84%
    08:00 +21°C° 0.2 mm 6 mps 763 mmHg 80%
    09:00 +22°C° 0.2 mm 6 mps 764 mmHg 76%
    10:00 +23°C° 0.2 mm 7 mps 764 mmHg 73%
    11:00 +24°C° 0.2 mm 7 mps 763 mmHg 72%
    12:00 +24°C° 0.2 mm 7 mps 763 mmHg 70%
    13:00 +24°C° 0.2 mm 7 mps 763 mmHg 69%
    14:00 +24°C° 0.2 mm 7 mps 763 mmHg 70%
    15:00 +24°C° 0.2 mm 7 mps 763 mmHg 71%
    16:00 +24°C° 0.2 mm 7 mps 763 mmHg 71%
    17:00 +23°C° 0.1 mm 7 mps 763 mmHg 74%
    18:00 +22°C° 0.1 mm 7 mps 764 mmHg 76%
    19:00 +21°C° 0.1 mm 6 mps 764 mmHg 79%
    20:00 +21°C° 0.1 mm 6 mps 764 mmHg 81%
    21:00 +20°C° 0.1 mm 6 mps 764 mmHg 82%
    22:00 +20°C° 0.1 mm 6 mps 765 mmHg 84%
    23:00 +20°C° 0.2 mm 6 mps 764 mmHg 84%
    Show more